{"data":{"norad_id":58943,"epoch":"2026-09-20T07:38:30.952320Z","epoch_age_seconds":171403,"freshness":"FRESH","line1":"1 58943U 24027N   26263.31841380  .00000653  00000+0  30456-4 0  9996","line2":"2 58943  53.1612 122.2918 0001334 103.5921 256.5231 15.34390956147175","mean_motion":15.34390956,"eccentricity":0.0001334,"inclination_deg":53.1612,"raan_deg":122.2918,"arg_perigee_deg":103.5921,"mean_anomaly_deg":256.5231,"bstar":3.0456e-5,"rev_number":14717,"period_min":93.848311238352,"perigee_km":461.81754933913,"apogee_km":463.64269268702,"semimajor_km":6840.8671210131,"source":"CELESTRAK","updated_at":"2026-09-21T09:00:33.998452Z"}}